Regional Weather Roundup
Issued by NWS State College, PA

Home | Current Version | Previous Version | Graphics & Text | Print | Product List | Glossary On
Versions: 1 2 3 4 5 6 7 8 9 10 11 12 13 14 15 16 17 18 19 20 21 22 23 24 25 26 27 28 29 30 31 32 33 34 35 36 37 38 39 40 41 42 43 44 45 46 47 48 49 50
492
ASUS41 KCTP 291710
RWRCTP

REGIONAL WEATHER ROUNDUP
NATIONAL WEATHER SERVICE STATE COLLEGE PA
100 PM EDT SUN MAY 29 2016

Note: "fair" indicates few or no clouds below 12,000 feet with no
significant weather and/or obstructions to visibility.

* = STATION THAT DOES NOT REPORT PRECIPITATION /E.G. RAIN...SNOW...ETC/
    THUNDER OR FOG.

PAZ002>004-007>009-013>016-020>023-029>032-291800-
WESTERN PENNSYLVANIA

CITY           SKY/WX    TMP DP  RH WIND       PRES   REMARKS
ERIE           CLOUDY    84  65  52 S10       30.06F
MEADVILLE      CLOUDY    76  66  71 SW7       30.11S
FRANKLIN*      CLOUDY    79  66  65 SE7       30.14F
NEW CASTLE     FAIR      81  68  64 SW6       30.11F
BEAVER COUNTY  NOT AVBL
BUTLER*        PTSUNNY   79  66  65 CALM      30.16S
PITTSBURGH INT CLOUDY    80  66  62 W5        30.12S
PITTSBURGH     TSTM      68  61  78 N13       30.13R VSB 1
INDIANA*       SUNNY     79  72  78 CALM      30.16S
LATROBE        MOSUNNY   81  72  74 CALM      30.13S
WASHINGTON CO* PTSUNNY   81  66  61 W5        30.14S
$$

PAZ004>006-010>012-017>019-024>028-033>037-041-042-045-046-049>053-291800-
CENTRAL PENNSYLVANIA

CITY           SKY/WX    TMP DP  RH WIND       PRES   REMARKS
BRADFORD       CLOUDY    80  61  52 VRB3      30.14F
DUBOIS         CLOUDY    78  66  66 SW6       30.13F
CLEARFIELD     CLOUDY    82  65  56 SW6       30.12F
JOHNSTOWN      CLOUDY    79  61  53 CALM      30.16S
ALTOONA        CLOUDY    83  60  45 S10       30.14F
STATE COLLEGE  SUNNY     82  63  51 S8        30.11F
WILLIAMSPORT   MOSUNNY   86  62  44 VRB6      30.07F
SELINSGROVE    PTSUNNY   86  58  38 S10       30.10F
FT INDIANTOWN  PTSUNNY   84  61  45 SW12      30.11F
CAPITAL CITY   PTSUNNY   84  60  44 VRB7      30.11F
HARRISBURG     PTSUNNY   86  63  45 S8        30.10F
YORK           PTSUNNY   83  62  49 VRB6      30.12F
$$

PAZ038>040-043-044-047-048-054-055-060>062-067>071-291800-
EASTERN PENNSYLVANIA

CITY           SKY/WX    TMP DP  RH WIND       PRES   REMARKS
SCRANTON       MOSUNNY   87  66  49 SW12G17   30.09F
MOUNT POCONO   MOSUNNY   80  62  54 SW10      30.16F
ALLENTOWN      SUNNY     86  62  44 S9        30.11F
QUAKERTOWN*    SUNNY     84  64  51 S8        30.14F
READING        MOSUNNY   87  62  43 S6        30.10F
LANCASTER      PTSUNNY   83  62  49 S12       30.12F
COATESVILLE    MOSUNNY   82  59  44 VRB3      30.15F
POTTSTOWN      MOSUNNY   83  62  49 S8        30.14F
BLUE BELL      SUNNY     81  61  50 S8        30.12F
DOYLESTOWN     SUNNY     82  57  42 VRB6      30.12F
WILLOW GROVE   NOT AVBL
NORTH PHILA    SUNNY     85  63  47 VRB6      30.13F
PHILADELPHIA   PTSUNNY   84  58  40 SW9       30.13F
$$




USA.gov is the U.S. government's official web portal to all federal, state and local government web resources and services.